Regional Weather Roundup
Issued by NWS Newport/Morehead, NC

Current Version | Previous Version | Text Only | Print | Product List | Glossary Off
Versions: 1 2 3 4 5 6 7 8 9 10 11 12 13 14 15 16 17 18 19 20 21 22 23 24 25 26 27 28 29 30 31 32 33 34 35 36 37 38 39 40 41 42 43 44 45 46 47 48 49 50
000 ASUS42 KMHX 292225 RWRMHX WEATHER ROUNDUP FOR EASTERN NORTH CAROLINA NATIONAL WEATHER SERVICE NEWPORT/MOREHEAD CITY NC 600 PM EDT WED JUL 29 2015 NOTE: "FAIR" INDICATES FEW OR NO CLOUDS BELOW 12,000 FEET WITH NO SIGNIFICANT WEATHER AND/OR OBSTRUCTIONS TO VISIBILITY NCZ015>017-031-032-045>047-102-103-292300- NORTH COAST CITY SKY/WX TMP DP RH WIND PRES REMARKS EDENTON N/A 85 73 68 E8 29.97F ELIZABETH CITY MOSUNNY 85 70 60 SE13G23 29.99F KITTY HAWK MOCLDY 87 70 56 E6 29.98F MANTEO PTSUNNY 83 71 68 SE6 29.99F $$ NCZ045>047-081-094-103-104-292300- CENTRAL COAST CITY SKY/WX TMP DP RH WIND PRES REMARKS FRISCO MOSUNNY 84 70 62 E12 29.98F SWANQUARTER N/A 86 N/A N/A NE8G14 29.94S $$ NCZ095-097-098-100-101-292300- SOUTHERN COAST CITY SKY/WX TMP DP RH WIND PRES REMARKS BEAUFORT MOSUNNY 84 72 67 E9 29.96F CEDAR ISLAND N/A 84 N/A N/A NE9G16 30.00S JACKSONVILLE SUNNY 85 70 60 SE13 29.95S PINEY ISLAND MOCLDY N/A N/A N/A MISG 29.97F WILMINGTON SUNNY 86 69 56 E12 29.95S $$ NCZ011>013-027>030-043-044-078>080-089-090>093-098-292300- COASTAL PLAIN CITY SKY/WX TMP DP RH WIND PRES REMARKS AHOSKIE MOSUNNY 88 70 55 SE6 29.96F CLINTON SUNNY 91 72 53 CALM 29.94F ELIZABETHTOWN SUNNY 91 70 50 E3 29.92F GOLDSBORO MOSUNNY 90 71 54 E9 29.92F GREENVILLE MOSUNNY 90 70 51 S9 29.97F HAVELOCK MOSUNNY 86 73 65 NE14 29.97F KENANSVILLE MOSUNNY 88 70 55 E5 29.95F KINSTON MOSUNNY 90 70 51 SE8 29.96F NEW BERN SUNNY 87 69 54 E9 29.98S RICHLANDS PTSUNNY 88 70 55 E8 29.95S ROCKY MOUNT PTSUNNY 91 71 51 SE6 29.95F WASHINGTON SUNNY 86 73 65 SE8 29.96F WHITEVILLE SUNNY 91 71 52 E5 29.92F $$ AMZ130-135-150-152-154-156-158-170-250-252-270-ANZ085-086-088-633-658-670-292300- MARINE OBSERVATIONS STATION/POSITION TIME TEMP WIND PRES WAVE SWELL AIR SEA DIR/SP/G HT/PER HT/PER (UTC) (F) (DEG/KT/KT) (MB) (FT/S) (FT/S) CHESAPEAKE LIGHT 2200 80 160/ 13/ 14 1015.9 64 E VA BEACH 2150 81 83 140/ 6/ 8 1015.8 2/ 8 2/ 8 DUCK 2200 83 72 N/A 2 E DUCK 2111 82 N/A 2/11 OREGON INLET 2200 82 87 N/A 13E OREGON INLT 2200 82 N/A 3/ 5 HATTERAS CG 2200 83 84 N/A DIAMOND BUOY 2150 82 85 90/ 14/ 17 1014.7 4/ 6 2/ 8 CAPE LOOKOUT 2200 81 60/ 15/ 16 1014.1 BEAUFORT LAB 2200 83 82 N/A 30 SE NEW RVR IN NOT AVBL 27 SE WRIGHTSVLE 2200 79 82 70/ 14/ 17 N/A 5 SE WRIGHTSVLE NOT AVBL 225 S CAPE HAT 2150 83 82 240/ 14/ 16 1014.4 5/ 7 3/ 7 41 SE CHARLESTON 2150 84 85 60/ 16/ 17 1012.5 3/ 7 2/10 $$

USA.gov is the U.S. government's official web portal to all federal, state and local government web resources and services.